• In Italy
  • List of Countries
  • For 7 days
  • Water Temperature
  • Satellite Maps
  • Weather Map
  • Weather Widgets
  • user-avatar
    Login

    Hourly Weather Etchmiadzin

    Today, 24 October, Tuesday

    Time Temperature Precipitation Wind Pressure Humidity
    00:00 +13°C° 0 mm 1 mps 686 mmHg 41%
    01:00 +12°C° 0 mm 1 mps 686 mmHg 42%
    02:00 +12°C° 0 mm 1 mps 687 mmHg 42%
    03:00 +12°C° 0 mm 1 mps 687 mmHg 43%
    04:00 +11°C° 0 mm 1 mps 687 mmHg 43%
    05:00 +11°C° 0 mm 1 mps 687 mmHg 43%
    06:00 +11°C° 0 mm 1 mps 686 mmHg 43%
    07:00 +13°C° 0 mm 1 mps 687 mmHg 39%
    08:00 +15°C° 0 mm 2 mps 687 mmHg 34%
    09:00 +17°C° 0 mm 2 mps 688 mmHg 30%
    10:00 +18°C° 0 mm 2 mps 688 mmHg 28%
    11:00 +19°C° 0 mm 3 mps 688 mmHg 26%
    12:00 +21°C° 0 mm 3 mps 687 mmHg 24%
    13:00 +21°C° 0 mm 3 mps 687 mmHg 24%
    14:00 +21°C° 0 mm 4 mps 687 mmHg 24%
    15:00 +21°C° 0 mm 4 mps 687 mmHg 24%
    16:00 +19°C° 0 mm 3 mps 687 mmHg 28%
    17:00 +17°C° 0 mm 3 mps 687 mmHg 32%
    18:00 +15°C° 0 mm 2 mps 687 mmHg 35%
    19:00 +15°C° 0 mm 2 mps 687 mmHg 36%
    20:00 +15°C° 0 mm 2 mps 687 mmHg 36%
    21:00 +14°C° 0 mm 2 mps 688 mmHg 37%
    22:00 +14°C° 0 mm 2 mps 688 mmHg 37%
    23:00 +14°C° 0 mm 2 mps 688 mmHg 38%

    Tomorrow, 25 October, Wednesday

    Time Temperature Precipitation Wind Pressure Humidity
    00:00 +14°C° 0 mm 2 mps 688 mmHg 38%
    01:00 +13°C° 0 mm 2 mps 688 mmHg 39%
    02:00 +13°C° 0 mm 2 mps 688 mmHg 40%
    03:00 +13°C° 0 mm 2 mps 688 mmHg 41%
    04:00 +13°C° 0 mm 2 mps 688 mmHg 42%
    05:00 +13°C° 0 mm 2 mps 688 mmHg 43%
    06:00 +12°C° 0 mm 2 mps 688 mmHg 44%
    07:00 +14°C° 0 mm 2 mps 689 mmHg 39%
    08:00 +16°C° 0 mm 2 mps 689 mmHg 35%
    09:00 +18°C° 0 mm 2 mps 690 mmHg 31%
    10:00 +20°C° 0 mm 3 mps 690 mmHg 29%
    11:00 +21°C° 0 mm 3 mps 689 mmHg 27%
    12:00 +22°C° 0 mm 3 mps 689 mmHg 26%
    13:00 +22°C° 0 mm 3 mps 689 mmHg 26%
    14:00 +22°C° 0 mm 3 mps 688 mmHg 26%
    15:00 +23°C° 0 mm 4 mps 688 mmHg 26%
    16:00 +21°C° 0 mm 3 mps 688 mmHg 29%
    17:00 +19°C° 0 mm 3 mps 688 mmHg 32%
    18:00 +17°C° 0 mm 2 mps 688 mmHg 36%
    19:00 +17°C° 0 mm 2 mps 688 mmHg 36%
    20:00 +16°C° 0 mm 2 mps 688 mmHg 37%
    21:00 +16°C° 0 mm 2 mps 688 mmHg 37%
    22:00 +16°C° 0 mm 2 mps 688 mmHg 38%
    23:00 +15°C° 0 mm 2 mps 688 mmHg 39%

    Day after tomorrow, 26 October, Thursday

    Time Temperature Precipitation Wind Pressure Humidity
    00:00 +15°C° 0 mm 2 mps 688 mmHg 39%
    01:00 +15°C° 0 mm 2 mps 688 mmHg 40%
    02:00 +15°C° 0 mm 2 mps 688 mmHg 40%
    03:00 +14°C° 0 mm 2 mps 688 mmHg 41%
    04:00 +14°C° 0 mm 2 mps 688 mmHg 41%
    05:00 +14°C° 0 mm 2 mps 687 mmHg 42%
    06:00 +14°C° 0 mm 2 mps 687 mmHg 42%
    07:00 +16°C° 0 mm 2 mps 688 mmHg 38%
    08:00 +18°C° 0 mm 2 mps 688 mmHg 33%
    09:00 +20°C° 0 mm 2 mps 688 mmHg 29%
    10:00 +21°C° 0 mm 3 mps 688 mmHg 27%
    11:00 +22°C° 0 mm 3 mps 687 mmHg 25%
    12:00 +23°C° 0 mm 4 mps 687 mmHg 23%
    13:00 +23°C° 0 mm 4 mps 687 mmHg 22%
    14:00 +23°C° 0 mm 4 mps 686 mmHg 22%
    15:00 +25°C° 0 mm 4 mps 686 mmHg 22%
    16:00 +22°C° 0 mm 3 mps 686 mmHg 25%
    17:00 +20°C° 0 mm 3 mps 686 mmHg 28%
    18:00 +18°C° 0 mm 2 mps 686 mmHg 31%
    19:00 +17°C° 0 mm 2 mps 686 mmHg 31%
    20:00 +17°C° 0 mm 2 mps 686 mmHg 32%
    21:00 +16°C° 0 mm 2 mps 686 mmHg 32%
    22:00 +16°C° 0 mm 2 mps 686 mmHg 33%
    23:00 +15°C° 0 mm 2 mps 686 mmHg 35%

    27 October, Friday

    Time Temperature Precipitation Wind Pressure Humidity
    00:00 +15°C° 0 mm 2 mps 686 mmHg 36%
    01:00 +15°C° 0 mm 2 mps 687 mmHg 39%
    02:00 +14°C° 0 mm 1 mps 687 mmHg 42%
    03:00 +14°C° 0 mm 1 mps 687 mmHg 45%
    04:00 +13°C° 0 mm 1 mps 687 mmHg 48%
    05:00 +13°C° 0 mm 1 mps 687 mmHg 51%
    06:00 +13°C° 0 mm 1 mps 687 mmHg 53%
    07:00 +14°C° 0 mm 1 mps 687 mmHg 50%
    08:00 +16°C° 0 mm 2 mps 688 mmHg 47%
    09:00 +18°C° 0 mm 2 mps 688 mmHg 44%
    10:00 +19°C° 0 mm 2 mps 688 mmHg 41%
    11:00 +20°C° 0 mm 2 mps 688 mmHg 38%
    12:00 +21°C° 0 mm 3 mps 687 mmHg 35%
    13:00 +21°C° 0 mm 3 mps 687 mmHg 34%
    14:00 +21°C° 0 mm 3 mps 687 mmHg 33%
    15:00 +21°C° 0 mm 3 mps 686 mmHg 32%
    16:00 +19°C° 0 mm 3 mps 686 mmHg 36%
    17:00 +18°C° 0 mm 2 mps 686 mmHg 40%
    18:00 +16°C° 0 mm 2 mps 686 mmHg 44%
    19:00 +16°C° 0 mm 2 mps 686 mmHg 46%
    20:00 +15°C° 0 mm 2 mps 686 mmHg 47%
    21:00 +15°C° 0 mm 2 mps 686 mmHg 49%
    22:00 +15°C° 0 mm 2 mps 686 mmHg 48%
    23:00 +14°C° 0 mm 2 mps 686 mmHg 48%

    28 October, Saturday

    Time Temperature Precipitation Wind Pressure Humidity
    00:00 +14°C° 0 mm 2 mps 686 mmHg 47%
    01:00 +14°C° 0 mm 2 mps 686 mmHg 46%
    02:00 +13°C° 0 mm 2 mps 686 mmHg 45%
    03:00 +13°C° 0 mm 2 mps 686 mmHg 44%
    04:00 +13°C° 0 mm 2 mps 686 mmHg 43%
    05:00 +13°C° 0 mm 2 mps 686 mmHg 42%
    06:00 +13°C° 0 mm 2 mps 685 mmHg 40%
    07:00 +15°C° 0 mm 2 mps 686 mmHg 37%
    08:00 +17°C° 0 mm 3 mps 686 mmHg 34%
    09:00 +19°C° 0 mm 3 mps 686 mmHg 31%
    10:00 +20°C° 0 mm 4 mps 686 mmHg 30%
    11:00 +21°C° 0 mm 4 mps 686 mmHg 29%
    12:00 +23°C° 0 mm 5 mps 686 mmHg 29%
    13:00 +21°C° 0.2 mm 5 mps 685 mmHg 34%
    14:00 +20°C° 0.2 mm 4 mps 685 mmHg 40%
    15:00 +19°C° 0.2 mm 4 mps 684 mmHg 46%
    16:00 +18°C° 0.5 mm 3 mps 684 mmHg 52%
    17:00 +18°C° 0.5 mm 3 mps 684 mmHg 58%
    18:00 +17°C° 0.5 mm 3 mps 684 mmHg 64%
    19:00 +16°C° 0.9 mm 3 mps 684 mmHg 66%
    20:00 +16°C° 0.9 mm 3 mps 684 mmHg 69%
    21:00 +16°C° 0.9 mm 2 mps 684 mmHg 71%
    22:00 +15°C° 1 mm 2 mps 683 mmHg 72%
    23:00 +15°C° 1 mm 2 mps 683 mmHg 74%

    29 October, Sunday

    Time Temperature Precipitation Wind Pressure Humidity
    00:00 +15°C° 1 mm 2 mps 683 mmHg 75%
    01:00 +14°C° 0.9 mm 3 mps 682 mmHg 76%
    02:00 +13°C° 0.9 mm 3 mps 682 mmHg 77%
    03:00 +13°C° 0.9 mm 3 mps 682 mmHg 78%
    04:00 +13°C° 0.2 mm 3 mps 682 mmHg 77%
    05:00 +14°C° 0.2 mm 2 mps 682 mmHg 76%
    06:00 +14°C° 0.2 mm 2 mps 682 mmHg 75%
    07:00 +15°C° 0.1 mm 2 mps 682 mmHg 71%
    08:00 +16°C° 0.1 mm 2 mps 683 mmHg 67%
    09:00 +17°C° 0.1 mm 3 mps 683 mmHg 62%
    10:00 +17°C° 0.1 mm 3 mps 683 mmHg 58%
    11:00 +18°C° 0.1 mm 3 mps 683 mmHg 54%
    12:00 +19°C° 0.1 mm 3 mps 683 mmHg 50%
    13:00 +19°C° 0 mm 4 mps 683 mmHg 48%
    14:00 +20°C° 0 mm 4 mps 683 mmHg 46%
    15:00 +20°C° 0 mm 4 mps 683 mmHg 44%
    16:00 +19°C° 0 mm 4 mps 683 mmHg 48%
    17:00 +17°C° 0 mm 3 mps 683 mmHg 52%
    18:00 +16°C° 0 mm 3 mps 683 mmHg 55%
    19:00 +16°C° 0 mm 2 mps 683 mmHg 55%
    20:00 +15°C° 0 mm 2 mps 684 mmHg 55%
    21:00 +15°C° 0 mm 2 mps 684 mmHg 55%
    22:00 +15°C° 0 mm 2 mps 684 mmHg 56%
    23:00 +14°C° 0 mm 2 mps 684 mmHg 56%
    Show more